Location: Bern�tre
(50.1974°N, 2.0915°E)
Time: 21:26:33
(UTC+00:00)

Cosmos 2082 Rocket - Pass Details

Date: 18 September 2020
Orbit: 834 x 853 km, 71.0° (Epoch: 30 October)

Event Time Altitude Azimuth Distance (km) Brightness Sun altitude
Rises 20:38:36 0° 333° (NNW) 3,393 6.4 -24.8°
Reaches altitude 10° 20:41:15 10° 341° (NNW) 2,456 5.3 -25.1°
Maximum altitude 20:46:26 37° 49° (NE) 1,282 3.0 -25.8°
Enters shadow 20:46:38 37° 53° (NE) 1,284 3.0 -25.8°
